Orbital Elements at Epoch 2459200.5 (2020-Dec-17.0) TDB
Reference: JPL 23 (heliocentric ecliptic J2000)
Element | Value | Uncertainty (1-sigma) | Units |
e | .1191766931790889 | 3.5878e-08 | |
a | 2.378900988160074 | 1.0588e-08 | au |
q | 2.095391434990689 | 8.5321e-08 | au |
i | 3.324470508074893 | 4.743e-06 | deg |
node | 45.88829430234886 | 7.2638e-05 | deg |
peri | 86.03018655973771 | 7.7446e-05 | deg |
M | 257.2316745984391 | 2.9515e-05 | deg |
tp | 2459583.077791669795 (2022-Jan-03.57779167) | 0.00011149 | TDB |
period | 1340.179519934399 3.67 | 8.947e-06 2.45e-08 | d yr |
n | .2686207292718678 | 1.7933e-09 | deg/d |
Q | 2.662410541329459 | 1.1849e-08 | au |
|
| | Orbit Determination Parameters
Additional Information
|